Location: Boiro
(42.6475°N, 8.8834°W)
Time: 05:44:10
(UTC+01:00)

Vanguard 1 - Pass Details

Date: 29 November 2021
Orbit: 652 x 3830 km, 34.2° (Epoch: 21 January)

Event Time Altitude Azimuth Distance (km) Brightness Sun altitude
Rises 09:21:46 0° 281° (W) 6,909 13.8 5.0°
Reaches altitude 10° 09:28:20 10° 270° (W) 5,292 13.3 6.0°
Maximum altitude 09:37:51 22° 228° (SW) 3,393 12.8 7.4°
Drops below altitude 10° 09:44:22 10° 181° (S) 3,459 13.5 8.3°
Sets 09:47:33 0° 165° (SSE) 4,045 14.2 8.8°
